Regional Weather Roundup
Issued by NWS

Home | Current Version | Previous Version | Text Only | Print | Product List | Glossary Off
Versions: 1 2 3 4 5 6 7 8 9 10 11 12 13 14 15 16 17 18 19 20 21 22 23 24 25 26 27 28 29 30 31 32 33 34 35 36 37 38 39 40 41 42 43 44 45 46 47 48 49 50

000
ASUS43 KDTX 230110
RWRMI
MICHIGAN HOURLY REGIONAL WEATHER ROUNDUP
NATIONAL WEATHER SERVICE DETROIT/PONTIAC MI
900 PM EDT SUN APR 22 2018

NOTE: "FAIR" INDICATES FEW OR NO CLOUDS BELOW 12,000 FEET WITH NO
SIGNIFICANT WEATHER AND/OR OBSTRUCTION TO VISIBILITY.

MIZ047>049-052>055-059>063-066>070-074>076-081>083-230200-
SOUTHEAST LOWER MICHIGAN

CITY           SKY/WX    TMP DP  RH WIND       PRES   REMARKS
ADRIAN         FAIR      49  22  34 SE6       30.32R
ALMA           FAIR      50  31  49 NE6       30.33R
ANN ARBOR      FAIR      51  22  31 E5        30.31S
BAD AXE        FAIR      49  15  25 E6        30.37S
CARO           FAIR      53  22  30 E3        30.34S
DETROIT CITY   FAIR      51  25  36 E7        30.33R
DETROIT        FAIR      55  24  30 E7        30.32S
FLINT          FAIR      52  28  39 E10       30.32R
GROSSE ILE     FAIR      50  24  35 E3        30.31S
HILLSDALE      FAIR      46  21  36 E7        30.30S
HOWELL         FAIR      52  21  29 SE5       30.31S

CITY           SKY/WX    TMP DP  RH WIND       PRES   REMARKS
JACKSON        FAIR      54  26  34 E8        30.31R
LAMBERTVILLE   FAIR      48  24  39 E3        30.32R
LANSING        FAIR      54  24  31 E9        30.31R
LAPEER         FAIR      52  24  33 E6        30.33S
MASON          FAIR      55  18  23 SE3       30.31R
MONROE         FAIR      48  20  33 E3        30.31S
MT. CLEMENS    PTCLDY    49  30  47 NE10      30.32F
PONTIAC        MOCLDY    54  24  31 SE7       30.32R
PORT HOPE        N/A     42  29  59 SE6       30.36S
PORT HURON     FAIR      45  23  42 N6        30.36S
TRI CITIES     FAIR      46  35  65 NE7       30.34S
MIDLAND        FAIR      49  28  44 NE3       30.33S
TROY           FAIR      56  21  25 E5        30.35R
SAGINAW HB     FAIR      45  32  61 N5        30.33S
$$
MIZ043>046-050>051-056>058-064>065-071>073-077>080-230200-
SOUTHWEST LOWER MICHIGAN

CITY           SKY/WX    TMP DP  RH WIND       PRES   REMARKS
BATTLE CREEK   FAIR      57  19  22 E5        30.29R
BENTON HARBOR  FAIR      47  32  56 CALM      30.27R
BIG RAPIDS     FAIR      53  17  24 E7        30.30S
COLDWATER      FAIR      52  24  33 SE9       30.30R
FREMONT        FAIR      56   8  15 E5        30.29S
HOLLAND        FAIR      57  27  31 NE5       30.28R
GRAND RAPIDS   FAIR      54  30  40 E7        30.29R
IONIA          FAIR      55  24  30 NE7       30.29S
KALAMAZOO      FAIR      56  21  25 E6        30.29R
LUDINGTON      FAIR      49  23  36 CALM      30.30S
MARSHALL       FAIR      52  23  31 E5        30.29R
MOUNT PLEASANT FAIR      54  27  35 E9        30.32R
MUSKEGON       FAIR      58  25  28 E6        30.29R
SOUTH HAVEN    FAIR      48  34  58 CALM      30.27R
$$
MIZ016>042-230200-
NORTHERN LOWER MICHIGAN

CITY           SKY/WX    TMP DP  RH WIND       PRES   REMARKS
ALPENA         FAIR      40  28  62 SE3       30.37S
BEAVER ISLAND  FAIR      44  18  35 E5        30.33S
BELLAIRE       FAIR      45  26  47 CALM      30.31S
CADILLAC       FAIR      49  22  33 SE8       30.30S
CHARLEVOIX     FAIR      46  21  36 CALM      30.34F
FRANKFORT      FAIR      49  25  40 CALM      30.30S
GAYLORD        FAIR      49  17  28 SE7       30.32S
GRAYLING       FAIR      46  22  38 SE7       30.32R
HARBOR SPRINGS FAIR      50  20  31 NE6       30.32S
HOUGHTON LAKE  FAIR      51  15  23 SE6       30.33R
MANISTEE       FAIR      45  23  42 W3        30.30S
OSCODA         FAIR      41  24  50 CALM      30.38R
PELLSTON       FAIR      47  22  37 CALM      30.33S
ROGERS CITY    FAIR      47  20  33 SE9       30.37R
TRAVERSE CITY  FAIR      45  28  51 W6        30.29F
$$
MIZ007>008-015-230200-
EASTERN UPPER MICHIGAN

CITY           SKY/WX    TMP DP  RH WIND       PRES   REMARKS
KINROSS        FAIR      47  16  29 S9        30.35R
MACKINAC ISLAN FAIR      44  19  38 E6        30.34R
NEWBERRY       FAIR      44  19  36 CALM      30.32S
S. S. MARIE    FAIR      51  18  27 S5        30.33R
MUNISING         N/A     52  20  28 S7        30.30R
$$
MIZ004>006-011>014-085-230200-
CENTRAL UPPER MICHIGAN

CITY           SKY/WX    TMP DP  RH WIND       PRES   REMARKS
MANISTIQUE     FAIR      39  15  38 CALM      30.32S
ESCANABA       FAIR      41  22  46 CALM      30.32S
MENOMINEE      FAIR      44  24  45 CALM      30.32
SAWYER-GWINN   CLEAR     50  19  29 S8        30.29S
$$
MIZ001>003-009>011-084-230200-
WESTERN UPPER MICHIGAN

CITY           SKY/WX    TMP DP  RH WIND       PRES   REMARKS
IRON MOUNTAIN  FAIR      52  17  25 SE5       30.27F
HOUGHTON       FAIR      44  21  40 E3        30.25F
COPPER HARBOR    N/A     46  19  34 W5        30.25F
IRONWOOD       FAIR      55  23  28 E5        30.25S
$$

ABBREVIATIONS USED IN REMARKS
   TC - TEMPERATURE IN CELSIUS
  WCI - WIND CHILL INDEX
   HX - HEAT INDEX
  VSB - VISIBILITY





USA.gov is the U.S. government's official web portal to all federal, state and local government web resources and services.